When you browse on this site, cookies collect data to enhance your experience and personalize the content and advertising you see.
Visit our Privacy Policy to learn more. By continuing to use the site, you agree to this use of cookies and data.
  • In Hungary
  • List of Countries
  • For 7 days
  • Water Temperature
  • Satellite Maps
  • Weather Map
  • News
  • Weather Widgets
  • user-avatar
    Login

    Hourly Weather Kalanchak

    Today, 17 November, Saturday

    Time Temperature Precipitation Wind Pressure Humidity
    00:00 0°C° 0 mm 9 mps 771 mmHg 80%
    01:00 0°C° 0 mm 8 mps 771 mmHg 80%
    02:00 0°C° 0 mm 8 mps 771 mmHg 81%
    03:00 0°C° 0 mm 8 mps 771 mmHg 81%
    04:00 0°C° 0 mm 7 mps 771 mmHg 81%
    05:00 0°C° 0 mm 7 mps 772 mmHg 81%
    06:00 0°C° 0 mm 7 mps 772 mmHg 80%
    07:00 0°C° 0 mm 7 mps 772 mmHg 80%
    08:00 +1°C° 0 mm 6 mps 772 mmHg 79%
    09:00 +1°C° 0 mm 6 mps 772 mmHg 77%
    10:00 +2°C° 0 mm 6 mps 772 mmHg 75%
    11:00 +2°C° 0 mm 6 mps 772 mmHg 73%
    12:00 +2°C° 0 mm 6 mps 772 mmHg 72%
    13:00 +3°C° 0 mm 5 mps 772 mmHg 71%
    14:00 +3°C° 0 mm 5 mps 772 mmHg 70%
    15:00 +2°C° 0 mm 5 mps 772 mmHg 72%
    16:00 +3°C° 0 mm 4 mps 773 mmHg 73%
    17:00 +3°C° 0 mm 4 mps 773 mmHg 75%
    18:00 +1°C° 0 mm 4 mps 772 mmHg 76%
    19:00 +1°C° 0 mm 4 mps 772 mmHg 77%
    20:00 0°C° 0 mm 4 mps 772 mmHg 78%
    21:00 +1°C° 0 mm 3 mps 772 mmHg 79%
    22:00 +1°C° 0 mm 3 mps 772 mmHg 79%
    23:00 +1°C° 0 mm 3 mps 772 mmHg 80%

    Tomorrow, 18 November, Sunday

    Time Temperature Precipitation Wind Pressure Humidity
    00:00 +1°C° 0 mm 3 mps 772 mmHg 81%
    01:00 0°C° 0 mm 3 mps 771 mmHg 83%
    02:00 0°C° 0 mm 3 mps 771 mmHg 85%
    03:00 0°C° 0 mm 3 mps 771 mmHg 85%
    04:00 0°C° 0 mm 3 mps 770 mmHg 85%
    05:00 0°C° 0 mm 3 mps 770 mmHg 85%
    06:00 0°C° 0 mm 3 mps 770 mmHg 84%
    07:00 +2°C° 0 mm 2 mps 770 mmHg 82%
    08:00 +2°C° 0 mm 2 mps 770 mmHg 80%
    09:00 +2°C° 0 mm 2 mps 769 mmHg 77%
    10:00 +4°C° 0 mm 1 mps 769 mmHg 75%
    11:00 +4°C° 0 mm 1 mps 769 mmHg 72%
    12:00 +5°C° 0 mm 1 mps 769 mmHg 69%
    13:00 +5°C° 0 mm 1 mps 768 mmHg 66%
    14:00 +5°C° 0 mm 2 mps 768 mmHg 64%
    15:00 +4°C° 0 mm 2 mps 768 mmHg 67%
    16:00 +5°C° 0 mm 1 mps 767 mmHg 69%
    17:00 +4°C° 0 mm 1 mps 767 mmHg 72%
    18:00 +3°C° 0 mm 2 mps 767 mmHg 74%
    19:00 +2°C° 0 mm 2 mps 767 mmHg 77%
    20:00 +2°C° 0 mm 2 mps 767 mmHg 79%
    21:00 +2°C° 0 mm 2 mps 767 mmHg 82%
    22:00 +1°C° 0 mm 2 mps 767 mmHg 84%
    23:00 0°C° 0 mm 3 mps 766 mmHg 87%

    Day after tomorrow, 19 November, Monday

    Time Temperature Precipitation Wind Pressure Humidity
    00:00 0°C° 0 mm 3 mps 766 mmHg 88%
    01:00 -1°C° 0 mm 4 mps 766 mmHg 89%
    02:00 -1°C° 0 mm 4 mps 765 mmHg 90%
    03:00 -1°C° 0 mm 4 mps 765 mmHg 90%
    04:00 -1°C° 0 mm 5 mps 765 mmHg 90%
    05:00 -1°C° 0 mm 5 mps 765 mmHg 90%
    06:00 -1°C° 0 mm 6 mps 765 mmHg 89%
    07:00 +1°C° 0 mm 6 mps 765 mmHg 87%
    08:00 0°C° 0 mm 7 mps 764 mmHg 85%
    09:00 +2°C° 0.1 mm 7 mps 764 mmHg 83%
    10:00 +3°C° 0.1 mm 7 mps 764 mmHg 80%
    11:00 +4°C° 0.1 mm 8 mps 764 mmHg 78%
    12:00 +4°C° 0.9 mm 8 mps 763 mmHg 80%
    13:00 +3°C° 0.9 mm 9 mps 763 mmHg 82%
    14:00 +3°C° 0.9 mm 9 mps 762 mmHg 84%
    15:00 +3°C° 1.6 mm 9 mps 762 mmHg 85%
    16:00 +3°C° 1.6 mm 9 mps 761 mmHg 87%
    17:00 +3°C° 1.6 mm 10 mps 761 mmHg 89%
    18:00 +5°C° 1 mm 10 mps 760 mmHg 89%
    19:00 +5°C° 1 mm 10 mps 760 mmHg 89%
    20:00 +6°C° 1 mm 10 mps 759 mmHg 89%
    21:00 +6°C° 0.5 mm 9 mps 759 mmHg 89%
    22:00 +7°C° 0.5 mm 8 mps 759 mmHg 89%
    23:00 +8°C° 0.5 mm 7 mps 759 mmHg 89%

    20 November, Tuesday

    Time Temperature Precipitation Wind Pressure Humidity
    00:00 +8°C° 0.2 mm 7 mps 759 mmHg 91%
    01:00 +9°C° 0.2 mm 6 mps 759 mmHg 92%
    02:00 +9°C° 0.2 mm 6 mps 759 mmHg 93%
    03:00 +8°C° 0 mm 7 mps 760 mmHg 92%
    04:00 +6°C° 0 mm 8 mps 760 mmHg 91%
    05:00 +6°C° 0 mm 8 mps 761 mmHg 90%
    06:00 +5°C° 0 mm 8 mps 761 mmHg 88%
    07:00 +5°C° 0 mm 8 mps 762 mmHg 86%
    08:00 +4°C° 0 mm 8 mps 763 mmHg 84%
    09:00 +4°C° 0 mm 7 mps 764 mmHg 82%
    10:00 +4°C° 0 mm 7 mps 764 mmHg 80%
    11:00 +4°C° 0 mm 7 mps 765 mmHg 77%
    12:00 +5°C° 0 mm 6 mps 765 mmHg 76%
    13:00 +6°C° 0 mm 5 mps 765 mmHg 74%
    14:00 +6°C° 0 mm 4 mps 765 mmHg 73%
    15:00 +5°C° 0 mm 4 mps 765 mmHg 75%
    16:00 +5°C° 0 mm 3 mps 766 mmHg 77%
    17:00 +6°C° 0 mm 2 mps 766 mmHg 80%
    18:00 +5°C° 0 mm 2 mps 766 mmHg 82%
    19:00 +5°C° 0 mm 2 mps 766 mmHg 83%
    20:00 +5°C° 0 mm 1 mps 766 mmHg 85%
    21:00 +5°C° 0 mm 1 mps 766 mmHg 85%
    22:00 +4°C° 0 mm 2 mps 765 mmHg 84%
    23:00 +5°C° 0 mm 2 mps 765 mmHg 84%

    21 November, Wednesday

    Time Temperature Precipitation Wind Pressure Humidity
    00:00 +5°C° 0 mm 2 mps 765 mmHg 84%
    01:00 +3°C° 0 mm 3 mps 765 mmHg 84%
    02:00 +3°C° 0 mm 4 mps 764 mmHg 84%
    03:00 +3°C° 0.3 mm 4 mps 764 mmHg 85%
    04:00 +4°C° 0.3 mm 4 mps 764 mmHg 85%
    05:00 +4°C° 0.3 mm 4 mps 763 mmHg 85%
    06:00 +3°C° 0.5 mm 5 mps 763 mmHg 85%
    07:00 +3°C° 0.5 mm 5 mps 763 mmHg 86%
    08:00 +3°C° 0.5 mm 5 mps 763 mmHg 87%
    09:00 +3°C° 1.3 mm 6 mps 763 mmHg 87%
    10:00 +3°C° 1.3 mm 6 mps 762 mmHg 87%
    11:00 +3°C° 1.3 mm 6 mps 762 mmHg 86%
    12:00 +4°C° 0.9 mm 6 mps 762 mmHg 85%
    13:00 +4°C° 0.9 mm 7 mps 761 mmHg 84%
    14:00 +4°C° 0.9 mm 7 mps 761 mmHg 83%
    15:00 +4°C° 1 mm 7 mps 761 mmHg 83%
    16:00 +4°C° 1 mm 8 mps 761 mmHg 82%
    17:00 +4°C° 1 mm 8 mps 761 mmHg 82%
    18:00 +4°C° 0.9 mm 8 mps 761 mmHg 81%
    19:00 +2°C° 0.9 mm 8 mps 761 mmHg 80%
    20:00 +2°C° 0.9 mm 8 mps 761 mmHg 79%
    21:00 +2°C° 0.9 mm 9 mps 762 mmHg 79%
    22:00 +2°C° 0.9 mm 9 mps 762 mmHg 78%
    23:00 +2°C° 0.9 mm 9 mps 762 mmHg 77%

    22 November, Thursday

    Time Temperature Precipitation Wind Pressure Humidity
    00:00 +1°C° 0.4 mm 9 mps 762 mmHg 78%
    01:00 +1°C° 0.4 mm 9 mps 763 mmHg 79%
    02:00 0°C° 0.4 mm 9 mps 763 mmHg 79%
    03:00 0°C° 0.2 mm 9 mps 763 mmHg 79%
    04:00 0°C° 0.2 mm 9 mps 764 mmHg 79%
    05:00 -1°C° 0.2 mm 9 mps 764 mmHg 79%
    06:00 -1°C° 0.1 mm 9 mps 765 mmHg 78%
    07:00 -1°C° 0.1 mm 8 mps 765 mmHg 77%
    08:00 -1°C° 0.1 mm 8 mps 766 mmHg 76%
    09:00 -1°C° 0 mm 8 mps 766 mmHg 73%
    10:00 0°C° 0 mm 8 mps 766 mmHg 70%
    11:00 0°C° 0 mm 8 mps 767 mmHg 67%
    12:00 0°C° 0 mm 7 mps 767 mmHg 65%
    13:00 +2°C° 0 mm 7 mps 767 mmHg 63%
    14:00 +2°C° 0 mm 7 mps 767 mmHg 62%
    15:00 +1°C° 0 mm 6 mps 767 mmHg 64%
    16:00 -1°C° 0 mm 6 mps 767 mmHg 66%
    17:00 -1°C° 0 mm 6 mps 768 mmHg 68%
    18:00 -2°C° 0 mm 6 mps 768 mmHg 69%
    19:00 -2°C° 0 mm 6 mps 768 mmHg 71%
    20:00 -2°C° 0 mm 6 mps 769 mmHg 73%
    21:00 -3°C° 0 mm 6 mps 769 mmHg 74%
    22:00 -3°C° 0 mm 6 mps 769 mmHg 75%
    23:00 -4°C° 0 mm 5 mps 770 mmHg 77%
    Show more